Regional Weather Roundup
Issued by NWS

Home | Current Version | Previous Version | Text Only | Print | Product List | Glossary On
Versions: 1 2 3 4 5 6 7 8 9 10 11 12 13 14 15 16 17 18 19 20 21 22 23 24 25 26 27 28 29 30 31 32 33 34 35 36 37 38 39 40 41 42 43 44 45 46 47 48 49 50
000
ASUS43 KFSD 161102
RWRSD

WEATHER ROUNDUP FOR SOUTH DAKOTA
NATIONAL WEATHER SERVICE SIOUX FALLS SD
600 AM CDT WED AUG 16 2017

NOTE: "FAIR" INDICATES FEW OR NO CLOUDS BELOW 12,000 FEET WITH NO
SIGNIFICANT WEATHER AND/OR OBSTRUCTIONS TO VISIBILITY.


SDZ001>005-009-010-012>017-161200-
NORTHWEST AND NORTH CENTRAL SOUTH DAKOTA

CITY           SKY/WX    TMP DP  RH WIND       PRES   REMARKS
BUFFALO          N/A     57  55  93 NW8       29.91S
FAITH            N/A     60  60 100 N10       29.90F
MOBRIDGE       CLOUDY    63  61  93 NW9       29.85S
$$

SDZ012>016-024>037-041>051-057-063-072>074-161200-
SOUTHWEST AND SOUTH CENTRAL SOUTH DAKOTA

CITY           SKY/WX    TMP DP  RH WIND       PRES   REMARKS
RAPID CTY ARPT CLOUDY    59  55  87 NW9       29.95F
PIERRE         CLOUDY    66  64  93 N12       29.82F
CUSTER         CLOUDY    54  43  66 NW6       30.05S
ELLSWORTH AFB  CLOUDY    60  57  88 NW15      29.95F
PHILIP         CLOUDY    63  63 100 N6        29.87F
PINE RIDGE     CLOUDY    62  60  93 NW6       29.94S
SPEARFISH      FAIR      55  52  88 W7        30.01S
WINNER         FAIR      64  63  96 NW6       29.81F
$$

SDZ004>011-016>023-039-040-161200-
NORTHEAST SOUTH DAKOTA

CITY           SKY/WX    TMP DP  RH WIND       PRES   REMARKS
ABERDEEN       CLOUDY    65  65 100 S3        29.83F FOG
WATERTOWN      CLOUDY    64  64 100 S3        29.84F FOG
BROOKINGS      CLOUDY    65  63  93 S6        29.86R
SISSETON         N/A     64  64 100 CALM      29.84F
$$

SDZ017-020-022-023-036>040-048>070-161200-
SOUTHEAST SOUTH DAKOTA

CITY           SKY/WX    TMP DP  RH WIND       PRES   REMARKS
SIOUX FALLS    LGT RAIN  66  65  96 SE6       29.85F
HURON          CLOUDY    65  65 100 SW3       29.81F
CHAMBERLAIN    LGT RAIN  65  65 100 CALM      29.81F
MITCHELL       LGT RAIN  66  65  96 SE3       29.83S
YANKTON        CLOUDY    65  64  97 E3        29.82S
$$

ABBREVIATIONS USED IN REMARKS
   TC - TEMPERATURE IN CELSIUS
  WCI - WIND CHILL INDEX
   HX - HEAT INDEX
  VSB - VISIBILITY





USA.gov is the U.S. government's official web portal to all federal, state and local government web resources and services.